Regional Weather Roundup
Issued by NWS San Angelo, TX

Home | Current Version | Previous Version | Text Only | Print | Product List | Glossary On
Versions: 1 2 3 4 5 6 7 8 9 10 11 12 13 14 15 16 17 18 19 20 21 22 23 24 25 26 27 28 29 30 31 32 33 34 35 36 37 38 39 40 41 42 43 44 45 46 47 48 49 50
000
ASUS44 KSJT 210810
RWRSJT
WEST CENTRAL TEXAS REGIONAL WEATHER ROUNDUP
NATIONAL WEATHER SERVICE SAN ANGELO TX
300 AM CDT THU AUG 21 2014

NOTE: "FAIR" INDICATES FEW OR NO CLOUDS BELOW 12,000 FEET WITH NO
SIGNIFICANT WEATHER AND/OR OBSTRUCTIONS TO VISIBILITY.

TXZ049-054-064>066-071>073-076>078-098-099-113-114-127-128-139-140-
154-155-168>170-210900
...LOCATIONS ACROSS WEST CENTRAL TEXAS...

CITY           SKY/WX    TMP DP  RH WIND       PRES   REMARKS
SAN ANGELO     PTCLDY    80  69  69 SE10      29.96F
ABILENE        PTCLDY    81  66  60 S17       29.96S
DYESS AFB      PTCLDY    80  68  65 S20G25    29.95S
JUNCTION       MOCLDY    78  71  79 S7        30.00R
SWEETWATER     MOCLDY    80  63  56 S16G24    30.00S
BROWNWOOD      CLOUDY    81  68  65 S15G23    29.98S
COLEMAN        SUNNY     79  67  67 S14G20    29.98S
SONORA         CLEAR     79  70  73 S10       30.04R
OZONA          FAIR      77  68  73 S12       30.02S
BRADY          CLEAR     79  68  69 SE12      30.00R
$$

TEXAS PANHANDLE/OKLAHOMA PANHANDLE

CITY           SKY/WX    TMP DP  RH WIND       PRES   REMARKS
AMARILLO       CLEAR     75  63  66 S18       29.98R
BORGER         CLEAR     79  62  56 S15G22    29.93S
CANADIAN       CLEAR     80  66  62 SW20G28   29.89R
DALHART        CLEAR     73  62  68 S12       29.95F
DUMAS          SUNNY     73  63  70 S15       29.94F
GUYMON         NOT AVBL
HEREFORD       MOSUNNY   72  66  81 S12       29.99S
PAMPA          SUNNY     74  61  63 S16       29.96S
PERRYTON       CLEAR     79  63  58 S14G20    29.91S
$$

SOUTHERN PANHANDLE/SOUTH PLAINS/ROLLING PLAINS

CITY           SKY/WX    TMP DP  RH WIND       PRES   REMARKS
LUBBOCK        CLOUDY    77  62  59 S15       29.99R
SNYDER         MOCLDY    79  61  54 S9        29.98S
CHILDRESS      MOCLDY    79  65  62 S8        29.93S
SEMINOLE       PTSUNNY   74  62  66 S8        30.00S
$$

PERMIAN BASIN

CITY           SKY/WX    TMP DP  RH WIND       PRES   REMARKS
MIDLAND        MOCLDY    77  65  66 S9        29.97F
ODESSA         MOCLDY    78  65  63 S10       29.98F
WINK           PTCLDY    79  64  60 SE10      29.93F
$$

FAR WEST/SOUTHWEST MOUNTAINS/TRANS PECOS

CITY           SKY/WX    TMP DP  RH WIND       PRES   REMARKS
ALPINE         PTSUNNY   72  60  67 S7        30.15S
DRYDEN           N/A     80  66  62 W5        29.95S
EL PASO        PTCLDY    81  44  27 W15       30.00S
FORT STOCKTON  PTCLDY    75  64  68 S12       29.98F
GUADALUPE PASS CLEAR     70  53  54 SW14      30.13S
MARFA          MOCLDY    68  63  83 S3        30.14F
PECOS          MOSUNNY   76  63  64 E8        29.92F
$$

DALLAS/FORT WORTH METROPLEX

CITY           SKY/WX    TMP DP  RH WIND       PRES   REMARKS
DFW AIRPORT    CLEAR     82  72  71 S17G24    29.95F
FTW MEACHAM    CLEAR     83  71  67 S17       29.94F
DAL-EXECUTIVE  CLEAR     82  73  74 S10G16    29.97S
GRAND PRAIRIE  CLEAR     82  71  69 SE12G17   29.98S
ADDISON        CLEAR     82  71  69 S12G18    29.98S
MESQUITE       SUNNY     79  73  81 S10       29.98S
LANCASTER      SUNNY     79  72  77 S8G16     29.99S
$$

NORTH CENTRAL TEXAS

CITY           SKY/WX    TMP DP  RH WIND       PRES   REMARKS
SHRMAN/DENISON SUNNY     80  70  72 S13       29.97S
GAINESVILLE    CLEAR     79  71  75 SE12      29.96F
BRIDGEPORT     SUNNY     82  67  61 S9        29.96S
DENTON         CLEAR     81  71  71 S17       29.95S
WAXAHACHIE     SUNNY     79  71  76 S9        29.99S
GRANBURY       SUNNY     84  68  59 S14G20    29.97S
$$

WESTERN NORTH TEXAS

CITY           SKY/WX    TMP DP  RH WIND       PRES   REMARKS
WICHITA FALLS  CLEAR     82  67  60 S16       29.91R
VERNON         SUNNY     82  55  39 S7        29.91S
BRECKENRIDGE   SUNNY     83  64  52 S14       29.94F
COMANCHE       CLEAR     80  69  70 S15       29.98S
$$

CENTRAL AND SOUTH CENTRAL TEXAS

CITY           SKY/WX    TMP DP  RH WIND       PRES   REMARKS
AUSTIN/BERGSTM MOCLDY    80  75  84 S8        30.00F
WACO           CLEAR     80  73  79 S16       29.98F
HILLSBORO      SUNNY     80  71  75 SE12G20   29.98F
TEMPLE         PTCLDY    79  68  69 S13       29.99S
KILLEEN-GRAY   PTCLDY    79  72  78 SE13      29.99F
FORT HOOD      CLEAR     81  73  76 SE14      29.99F
GEORGETOWN     CLOUDY    81  73  78 S13G20    30.02F
LAGO VISTA     CLOUDY    79  73  80 S10G21    30.02F
SAN MARCOS     MOCLDY    81  72  74 S15       30.02F
NEW BRAUNFELS  PTCLDY    81  75  82 S12       29.99F
RANDOLPH AFB   MOCLDY    81  73  78 S9        30.00F
SAN ANTONIO    MOCLDY    82  75  79 SE14      30.00F
STINSON        MOCLDY    82  75  79 SE10      29.97F
PLEASANTON     NOT AVBL
LA GRANGE      CLEAR     81  78  92 S5        29.99F
GIDDINGS       PTSUNNY   80  76  86 S8        30.04F
$$

EAST TEXAS

CITY           SKY/WX    TMP DP  RH WIND       PRES   REMARKS
PARIS          CLEAR     75  64  69 S8        30.01R
CLARKSVILLE    MOSUNNY   77  70  79 SE6       30.01R
TYLER          CLEAR     77  73  87 S10       30.01S
LONGVIEW       CLEAR     76  72  87 S8        30.02S
PALESTINE      SUNNY     77  75  93 S6        30.02F
NACOGDOCHES    PTCLDY    73  70  88 SE3       30.04F
$$

TEXAS HILL COUNTRY AND EDWARDS PLATEAU

CITY           SKY/WX    TMP DP  RH WIND       PRES   REMARKS
LLANO          MOSUNNY   81  70  69 S6G16     30.03R
HORSESHOE BAY  FAIR      79  69  72 S12G22    30.00S
KERRVILLE      CLOUDY    76  72  85 SE14      30.03S
FREDERICKSBRG  MOCLDY    76  69  77 S10G18    30.02S
ROCKSPRINGS    PTSUNNY   75  72  88 SE10G18   30.04S
HONDO          CLOUDY    80  74  81 SE12      30.00S
UVALDE         CLOUDY    81  75  84 SE12      29.97S
DEL RIO        CLOUDY    83  70  64 SE13      29.92S
$$

SOUTHEAST TEXAS

CITY           SKY/WX    TMP DP  RH WIND       PRES   REMARKS
COLLEGE STN    CLEAR     79  76  90 S10       30.00F
CALDWELL       PTSUNNY   79  77  94 S8        30.03F
CROCKETT         N/A    N/A N/A N/A MISG        N/A
BRENHAM        PTCLDY    80  77  91 S6        30.01F
HUNTSVILLE     CLEAR     78  76  93 S6        30.02F
CONROE         CLEAR     74  74 100 SE5       30.03F
HOUSTON BUSH   PTCLDY    81  77  88 S6        30.01F
HOUSTON HOBBY  CLEAR     79  76  90 CALM      30.01F
PERLAND        CLEAR     81  77  88 CALM      30.02F
WHARTON        SUNNY     79  77  94 SE6       30.01F
$$

THE UPPER TEXAS COAST

CITY           SKY/WX    TMP DP  RH WIND       PRES   REMARKS
ORANGE         MOSUNNY   83  77  80 MISG      30.05S
PORT ARTHUR    PTCLDY    82  77  84 S6        30.03S
GALVESTON      PTCLDY    85  80  85 S16       30.03F
ANGLETON       CLEAR     82  79  90 S9        30.01F
BAY CITY       MOSUNNY   83  83 100 S5        30.01S
$$

TEXAS COASTAL BEND, RIO GRANDE PLAINS DEEP SOUTH TEXAS

CITY           SKY/WX    TMP DP  RH WIND       PRES   REMARKS
VICTORIA       MOCLDY    85  80  85 S9        30.00F
BEEVILLE       FAIR      83  77  81 S17G24    29.98F
ROCKPORT       PTCLDY    84  79  85 S12G20    29.98F
PORT ARANSAS   SUNNY     82  79  91 S13G18    29.98F
PORT LAVACA    SUNNY     82  79  90 S7        30.00S
CORPUS CHRISTI MOCLDY    83  78  85 S18       29.98S
KINGSVILLE NAS PTCLDY    84  79  85 S18       29.97F
COTULLA        CLEAR     83  73  72 SE15      29.94S
LAREDO         CLEAR     85  73  67 SE17G24   29.95S
BROWNSVILLE    CLEAR     81  77  88 S12       29.99S
PORT ISABEL    CLEAR     83  75  77 S9        29.98F
HEBBRONVILLE   PTSUNNY   82  73  75 SE16G24   29.98S
MCALLEN        CLEAR     82  75  79 SE16G23   29.97S
WESLACO        MOCLDY    82  74  76 S9        29.97S
FALFURRIAS     PTSUNNY   88  74  64 SE9       29.96F
EDINBURG       SUNNY     84  74  72 S14       29.98S
$$



USA.gov is the U.S. government's official web portal to all federal, state and local government web resources and services.